TimeMDT,TemperatureF,Dew PointF,Humidity,Sea Level PressureIn,VisibilityMPH,Wind Direction,Wind SpeedMPH,Gust SpeedMPH,PrecipitationIn,Events,Conditions,WindDirDegrees,DateUTC
12:15 AM,32.0,15.8,51,30.20,10.0,SE,3.5,-,N/A,,Clear,130,2013-04-24 06:15:00
12:35 AM,30.2,15.8,55,30.21,10.0,East,3.5,-,N/A,,Clear,100,2013-04-24 06:35:00
12:55 AM,30.2,17.6,60,30.22,10.0,East,3.5,-,N/A,,Clear,90,2013-04-24 06:55:00
1:15 AM,30.2,17.6,60,30.23,10.0,SSE,3.5,-,N/A,,Clear,150,2013-04-24 07:15:00
1:35 AM,28.4,17.6,64,30.23,10.0,Calm,Calm,-,N/A,,Clear,0,2013-04-24 07:35:00
1:55 AM,28.4,15.8,59,30.23,10.0,SE,3.5,-,N/A,,Clear,140,2013-04-24 07:55:00
2:15 AM,28.4,17.6,64,30.23,10.0,SE,4.6,-,N/A,,Clear,130,2013-04-24 08:15:00
2:35 AM,26.6,15.8,64,30.23,10.0,Calm,Calm,-,N/A,,Clear,0,2013-04-24 08:35:00
2:55 AM,26.6,17.6,69,30.23,10.0,NNE,3.5,-,N/A,,Clear,30,2013-04-24 08:55:00
3:15 AM,24.8,15.8,69,30.24,10.0,Calm,Calm,-,N/A,,Clear,0,2013-04-24 09:15:00
3:35 AM,24.8,14.0,64,30.25,10.0,Calm,Calm,-,N/A,,Clear,0,2013-04-24 09:35:00
3:55 AM,23.0,15.8,74,30.25,10.0,Calm,Calm,-,N/A,,Clear,0,2013-04-24 09:55:00
4:15 AM,21.2,14.0,74,30.25,10.0,SSE,3.5,-,N/A,,Clear,160,2013-04-24 10:15:00
4:35 AM,21.2,15.8,80,30.26,10.0,Calm,Calm,-,N/A,,Clear,0,2013-04-24 10:35:00
4:55 AM,21.2,17.6,86,30.26,10.0,Calm,Calm,-,N/A,,Clear,0,2013-04-24 10:55:00
5:15 AM,21.2,14.0,74,30.27,10.0,NE,4.6,-,N/A,,Clear,40,2013-04-24 11:15:00
5:35 AM,21.2,15.8,80,30.27,10.0,Calm,Calm,-,N/A,,Clear,0,2013-04-24 11:35:00
5:55 AM,19.4,12.2,74,30.28,10.0,Calm,Calm,-,N/A,,Clear,0,2013-04-24 11:55:00
6:15 AM,21.2,17.6,86,30.29,10.0,Calm,Calm,-,N/A,,Clear,0,2013-04-24 12:15:00
6:35 AM,19.4,15.8,86,30.29,10.0,Calm,Calm,-,N/A,,Clear,0,2013-04-24 12:35:00
6:55 AM,19.4,15.8,86,30.29,10.0,Calm,Calm,-,N/A,,Clear,0,2013-04-24 12:55:00
7:15 AM,19.4,12.2,74,30.31,10.0,Calm,Calm,-,N/A,,Clear,0,2013-04-24 13:15:00
7:35 AM,21.2,15.8,80,30.31,10.0,Calm,Calm,-,N/A,,Clear,0,2013-04-24 13:35:00
7:55 AM,23.0,17.6,80,30.32,10.0,Calm,Calm,-,N/A,,Clear,0,2013-04-24 13:55:00
8:15 AM,26.6,19.4,74,30.32,10.0,Calm,Calm,-,N/A,,Clear,0,2013-04-24 14:15:00
8:35 AM,28.4,19.4,69,30.33,10.0,Calm,Calm,-,N/A,,Clear,0,2013-04-24 14:35:00
9:55 AM,35.6,19.4,52,30.32,10.0,NNE,3.5,-,N/A,,Clear,20,2013-04-24 15:55:00
10:15 AM,37.4,19.4,48,30.30,10.0,SSW,3.5,-,N/A,,Clear,200,2013-04-24 16:15:00
10:35 AM,39.2,19.4,45,30.29,10.0,North,3.5,-,N/A,,Clear,350,2013-04-24 16:35:00
10:55 AM,41.0,19.4,42,30.28,10.0,West,3.5,-,N/A,,Clear,260,2013-04-24 16:55:00
11:35 AM,44.6,21.2,39,30.26,10.0,NNW,6.9,-,N/A,,Clear,340,2013-04-24 17:35:00
11:55 AM,44.6,19.4,37,30.25,10.0,NW,4.6,-,N/A,,Clear,320,2013-04-24 17:55:00
12:15 PM,46.4,19.4,34,30.24,10.0,West,3.5,-,N/A,,Clear,260,2013-04-24 18:15:00
12:35 PM,46.4,19.4,34,30.23,10.0,WNW,4.6,-,N/A,,Clear,300,2013-04-24 18:35:00
12:55 PM,48.2,19.4,32,30.22,10.0,North,5.8,-,N/A,,Clear,350,2013-04-24 18:55:00
1:15 PM,50.0,19.4,30,30.21,10.0,North,4.6,-,N/A,,Clear,350,2013-04-24 19:15:00
1:35 PM,51.8,19.4,28,30.19,10.0,NE,5.8,-,N/A,,Clear,40,2013-04-24 19:35:00
1:55 PM,51.8,19.4,28,30.18,10.0,NNW,4.6,-,N/A,,Clear,340,2013-04-24 19:55:00
2:15 PM,53.6,19.4,26,30.17,10.0,NW,4.6,-,N/A,,Clear,320,2013-04-24 20:15:00
2:35 PM,53.6,21.2,28,30.15,10.0,NNW,5.8,-,N/A,,Clear,330,2013-04-24 20:35:00
2:55 PM,53.6,19.4,26,30.15,10.0,NW,3.5,-,N/A,,Clear,310,2013-04-24 20:55:00
3:15 PM,55.4,19.4,25,30.13,10.0,North,5.8,-,N/A,,Clear,360,2013-04-24 21:15:00
3:35 PM,55.4,19.4,25,30.12,10.0,ENE,3.5,-,N/A,,Clear,60,2013-04-24 21:35:00
3:55 PM,55.4,19.4,25,30.11,10.0,ENE,5.8,-,N/A,,Clear,70,2013-04-24 21:55:00
4:15 PM,57.2,19.4,23,30.09,10.0,NNW,4.6,-,N/A,,Clear,340,2013-04-24 22:15:00
4:35 PM,57.2,19.4,23,30.08,10.0,North,3.5,-,N/A,,Clear,350,2013-04-24 22:35:00
4:55 PM,57.2,17.6,21,30.07,10.0,Calm,Calm,-,N/A,,Clear,0,2013-04-24 22:55:00
5:15 PM,59.0,19.4,22,30.05,10.0,NW,3.5,-,N/A,,Clear,320,2013-04-24 23:15:00
5:35 PM,59.0,17.6,20,30.04,10.0,NNE,3.5,-,N/A,,Clear,20,2013-04-24 23:35:00
5:55 PM,59.0,17.6,20,30.03,10.0,North,3.5,-,N/A,,Clear,10,2013-04-24 23:55:00
6:15 PM,60.8,17.6,19,30.02,10.0,Calm,Calm,-,N/A,,Clear,0,2013-04-25 00:15:00
6:35 PM,60.8,17.6,19,30.02,10.0,Calm,Calm,-,N/A,,Clear,0,2013-04-25 00:35:00
6:55 PM,60.8,17.6,19,30.00,10.0,North,4.6,-,N/A,,Clear,350,2013-04-25 00:55:00
7:15 PM,60.8,15.8,17,30.00,10.0,NW,5.8,-,N/A,,Clear,320,2013-04-25 01:15:00
7:35 PM,60.8,15.8,17,30.00,10.0,North,4.6,-,N/A,,Clear,350,2013-04-25 01:35:00
7:55 PM,57.2,15.8,20,30.00,10.0,NNW,5.8,-,N/A,,Clear,340,2013-04-25 01:55:00
8:55 PM,48.2,17.6,30,30.01,10.0,SE,4.6,-,N/A,,Clear,130,2013-04-25 02:55:00
9:15 PM,44.6,17.6,34,30.03,10.0,SE,4.6,-,N/A,,Clear,130,2013-04-25 03:15:00
9:35 PM,44.6,17.6,34,30.03,10.0,SE,6.9,-,N/A,,Clear,140,2013-04-25 03:35:00
9:55 PM,46.4,17.6,32,30.03,10.0,SE,4.6,-,N/A,,Clear,140,2013-04-25 03:55:00
10:15 PM,46.4,15.8,29,30.03,10.0,Calm,Calm,-,N/A,,Clear,0,2013-04-25 04:15:00
10:35 PM,46.4,15.8,29,30.03,10.0,SE,5.8,-,N/A,,Clear,130,2013-04-25 04:35:00
10:55 PM,44.6,15.8,31,30.03,10.0,SE,5.8,-,N/A,,Clear,140,2013-04-25 04:55:00
11:15 PM,42.8,17.6,36,30.03,10.0,Calm,Calm,-,N/A,,Clear,0,2013-04-25 05:15:00
11:35 PM,42.8,17.6,36,30.02,10.0,Calm,Calm,-,N/A,,Clear,0,2013-04-25 05:35:00
11:55 PM,39.2,17.6,42,30.02,10.0,SE,3.5,-,N/A,,Clear,130,2013-04-25 05:55:00